Location: B?ogocice
(50.2413°N, 20.2361°E)
Time: 23:21:18
(UTC+00:00)

Cosmos 1821 Rocket - Pass Details

Date: 15 June 2024
Orbit: 945 x 1003 km, 82.9° (Epoch: 18 July)

Event Time Altitude Azimuth Distance (km) Brightness Sun altitude
Exits shadow 01:01:22 10° 192° (SSW) 2,642 5.7 -10.0°
Maximum altitude 01:07:25 81° 280° (W) 969 4.0 -9.5°
Drops below altitude 10° 01:13:36 10° 8° (N) 2,705 7.5 -8.9°
Sets 01:16:08 0° 10° (N) 3,663 8.3 -8.7°
